FENGYUN 1C DEB, 31934

Orbit data source: Space-Track

FENGYUN 1C DEB, 31934 is space debris in SSO originally from a launch on Mon, 10 May 1999 UTC launched from the Taiyaun Space Center, China (TSC). Fengyun 1C debris stems from the Chinese weather satellite Fengyun-1C, which was intentionally destroyed by a Chinese anti-satellite missile in 2007. This event dramatically increased the amount of space debris, with thousands of trackable fragments posing hazards to satellites and human spaceflight. The Fengyun 1C debris cloud has become a focal point in discussions about space sustainability and the need for international regulations to prevent the creation of new debris.

Loading next visibility...
Identifier
31934, 1999-025CMK
Orbit
SSO
Country
Flag of CNCN / PRC
Related business
Manufacturer
Unknown
Mission
Spacecraft
Bus & Motor
Unknown
Mass
Unknown
Launch date (UTC)
1999-05-10 (27 years ago)
Launch vehicle
Unknown
Launch site
Taiyaun Space Center, China (TSC)
Object type
Payload
Rocket body
Debris
Shape & HBR
Unknown shape, 0.1 m
Radar Cross Section
Small (<0.1 m²)

Expand to show TLE details & history
Last TLE update: 3 months ago

TLE from 3 months ago
0 FENGYUN 1C DEB
1 31934U 99025CMK 26106.93557295  .00060832  00000-0  22398-2 0  9990
2 31934  98.8561 182.2716 0026534 178.2406 181.8927 15.27287356627405
Epoch: 2026-04-16T22:27Z
TLE epoch observation values (Epoch: 2026-04-16T22:27:13.502Z)
Latitude
-0.00002°
Longitude
0.38937°
Altitude
505.182 km
Speed
7.602 km/s
True Right ascension
12h 09m 05s
True Declination
0° 00' 00"
Sunlit
Object was in full shadow at epoch
Visualization orbit readout
Latitude
Unknown
Longitude
Unknown
Altitude
Unknown
Speed
Unknown
Apparent Right ascension
Unknown
Apparent Declination
Unknown
Sunlit
N/A
Visualization observer readout
Local Sidereal Time
21:45:15
Azimuth
Unknown
Elevation
Unknown
Doppler factor
Unknown
Orbital elements
Apogee altitude
499.15 km
Perigee altitude
462.75 km
Semi-major axis
6,859.087 km
Eccentricity
0.00265
Inclination
98.8561°
RAAN
182.2716°
Arg. of periapsis
178.2406°
True anomaly
181.88269°
Mean anomaly
181.8927°
Eccentric anomaly
181.88769°
Mean motion
3.82071 °/min
Orbital period
94.22 mins
BSTAR
0.0022398
Loading maneuver chart data...
Computing Atmospheric mass density...
Loading historical data...
Loading historical data...
Loading historical data...
Loading historical data...
Loading historical data...
Loading historical data...
Loading historical data...

Documentation

Showing up to 5 results
|